STARLINK-11692 [DTC]

Last updated on Thu Jul 03 2025 00:02:06 GMT+0000 (Coordinated Universal Time)

1 64381U 25127M 25183.61024812 .00506506 00000+0 19777-2 0 9996 2 64381 43.0022 154.4240 0001249 339.4775 20.6048 15.84932710 4250
UTC large
Height (km)
Speed (km/s)
/
Latitude / Longitude
Inclination (degrees)
Orbital Period (minutes)
Azimuth
Elevation
Range (km)
Doppler Factor

Next 0 passes for location: London (51.5072 / 0.1276)

Sorry there are no passes over London.